Date String (YYYY-MM-DD hh:mm:ss) UTC,Instrument flags,absolute air pressure of the measurement (hPa),sample flow rate (lpm),inlet stack bypass flow (lpm),air temperature of the measurement (°C),ambient temperature measured by the external sensor (°C),aerosol sample conditioner tube jacket temperature (°C),OPC LED temperature (°C),internal box temperature (°C),relative humidity of the measurement (%),span deviation,mass concentration of particles derived from Lorenz-Mie calculation of OPC scattering (μg/m³),mass concentration of particles derived from Lorenz-Mie calculation of OPC scattering (μg/m³),mass concentration of particles derived from Lorenz-Mie calculation of OPC scattering (μg/m³)
DateTimeUTC,F1_M11,P_M11,Q1_M11,Q2_M11,T1_M11,T2_M11,T3_M11,T4_M11,T5_M11,U1_M11,ZSPAN_M11,X2_M11,X0_M11,X1_M11
2023-12-04 12:00:00,SystemResetWarning,0825.9,5.00,000.00,018.7,017.8,000.0,027.2,020.0,16.5,0000.0,0000.20,0001.67,0000.08
2023-12-04 12:01:00,SystemResetWarning,0825.9,5.00,000.00,018.7,017.8,000.0,027.2,020.0,16.8,0000.0,0000.18,0001.64,0000.08
2023-12-04 12:02:00,SystemResetWarning,0825.9,4.99,000.00,018.7,017.8,000.0,027.2,020.0,17.0,0000.0,0000.16,0001.60,0000.08
2023-12-04 12:03:00,SystemResetWarning,0825.9,4.99,000.00,018.7,017.8,000.0,027.2,020.0,17.0,0000.0,0000.16,0001.60,0000.08
2023-12-04 12:04:00,SystemResetWarning,0825.9,5.01,000.00,018.7,017.8,000.0,027.2,020.0,16.9,0000.0,0000.15,0001.57,0000.07
2023-12-04 12:05:00,SystemResetWarning,0825.9,5.01,000.00,018.7,017.8,000.0,027.2,020.0,17.0,0000.0,0000.14,0001.56,0000.07
2023-12-04 12:06:00,SystemResetWarning,0825.9,5.01,000.00,018.7,017.8,000.0,027.2,020.0,17.0,0000.0,0000.17,0001.63,0000.07
2023-12-04 12:07:00,SystemResetWarning,0825.9,4.99,000.00,018.7,017.8,000.0,027.2,020.0,17.0,0000.0,0000.18,0002.20,0000.07
2023-12-04 12:08:00,SystemResetWarning,0825.9,4.99,000.00,018.7,017.8,000.0,027.2,020.0,16.9,0000.0,0000.17,0002.51,0000.07
2023-12-04 12:09:00,SystemResetWarning,0825.9,4.99,000.00,018.7,017.7,000.0,027.2,020.0,16.8,0000.0,0000.18,0002.94,0000.07
2023-12-04 12:10:00,SystemResetWarning,0825.9,5.00,000.00,018.7,017.7,000.0,027.2,020.0,16.8,0000.0,0000.19,0001.98,0000.07
2023-12-04 12:11:00,SystemResetWarning,0825.9,5.01,000.00,018.7,017.7,000.0,027.2,020.0,16.9,0000.0,0000.20,0001.75,0000.07
2023-12-04 12:12:00,SystemResetWarning,0825.9,5.01,000.00,018.7,017.7,000.0,027.2,020.0,17.0,0000.0,0000.21,0001.80,0000.07
2023-12-04 12:13:00,SystemResetWarning,0825.9,5.01,000.00,018.7,017.7,000.0,027.2,020.0,17.2,0000.0,0000.24,0001.87,0000.07
2023-12-04 12:14:00,SystemResetWarning,0825.8,5.00,000.00,018.7,017.7,000.0,027.2,020.0,17.1,0000.0,0000.27,0001.98,0000.07
2023-12-04 12:15:00,SystemResetWarning,0825.8,4.99,000.00,018.7,017.7,000.0,027.2,020.0,17.2,0000.0,0000.28,0002.00,0000.07
2023-12-04 12:16:00,SystemResetWarning,0825.8,5.00,000.00,018.7,017.7,000.0,027.2,020.0,17.1,0000.0,0000.31,0002.13,0000.07
2023-12-04 12:17:00,SystemResetWarning,0825.7,5.00,000.00,018.7,017.7,000.0,027.2,020.0,17.3,0000.0,0000.28,0002.12,0000.07
2023-12-04 12:18:00,SystemResetWarning,0825.7,4.99,000.00,018.7,017.7,000.0,027.2,020.0,17.3,0000.0,0000.28,0001.47,0000.08
2023-12-04 12:19:00,SystemResetWarning,0825.8,5.00,000.00,018.7,017.7,000.0,027.2,020.0,17.4,0000.0,0000.28,0001.27,0000.08
2023-12-04 12:20:00,SystemResetWarning,0825.8,5.01,000.00,018.7,017.6,000.0,027.2,020.0,17.4,0000.0,0000.27,0000.79,0000.08
2023-12-04 12:21:00,SystemResetWarning,0825.8,5.01,000.00,018.7,017.6,000.0,027.2,020.0,17.2,0000.0,0000.28,0002.17,0000.08
2023-12-04 12:22:00,SystemResetWarning,0825.8,5.00,000.00,018.7,017.6,000.0,027.2,020.0,17.1,0000.0,0000.28,0002.25,0000.08
2023-12-04 12:23:00,SystemResetWarning,0825.9,4.99,000.00,018.7,017.6,000.0,027.2,020.0,17.4,0000.0,0000.28,0002.55,0000.09
2023-12-04 12:24:00,SystemResetWarning,0825.8,4.99,000.00,018.7,017.6,000.0,027.2,020.0,17.3,0000.0,0000.26,0002.84,0000.09
2023-12-04 12:25:00,SystemResetWarning,0825.8,5.00,000.00,018.7,017.6,000.0,027.2,020.0,17.6,0000.0,0000.24,0003.06,0000.09
2023-12-04 12:26:00,SystemResetWarning,0825.8,5.01,000.00,018.7,017.6,000.0,027.2,020.0,17.6,0000.0,0000.23,0003.04,0000.09
2023-12-04 12:27:00,SystemResetWarning,0825.8,5.01,000.00,018.7,017.7,000.0,027.2,020.2,17.5,0000.0,0000.20,0002.93,0000.09
2023-12-04 12:28:00,SystemResetWarning,0825.9,5.00,000.00,018.8,018.3,000.0,027.2,020.7,17.2,0000.0,0000.20,0002.93,0000.09
2023-12-04 12:29:00,SystemResetWarning,0826.0,5.00,000.00,019.0,019.1,000.0,027.2,021.0,17.0,0000.0,0000.19,0002.98,0000.08
2023-12-04 12:30:00,SystemResetWarning,0825.9,4.99,000.00,019.1,019.1,000.0,027.2,020.8,16.9,0000.0,0000.19,0002.96,0000.08
2023-12-04 12:31:00,SystemResetWarning,0825.9,4.99,000.00,019.1,019.0,000.0,027.3,020.5,16.9,0000.0,0000.18,0002.92,0000.08
2023-12-04 12:32:00,SystemResetWarning,0825.9,5.01,000.00,019.1,018.8,000.0,027.3,020.3,16.4,0000.0,0000.16,0001.55,0000.08
2023-12-04 12:33:00,SystemResetWarning,0825.9,5.01,000.00,019.0,018.6,000.0,027.3,020.2,16.5,0000.0,0000.16,0001.51,0000.08
2023-12-04 12:34:00,SystemResetWarning,0825.9,5.01,000.00,019.0,018.5,000.0,027.3,020.1,16.9,0000.0,0000.17,0001.13,0000.08
2023-12-04 12:35:00,SystemResetWarning,0825.9,4.99,000.00,019.0,018.3,000.0,027.2,020.1,16.9,0000.0,0000.17,0000.88,0000.08
2023-12-04 12:36:00,SystemResetWarning,0825.9,4.99,000.00,019.0,018.2,000.0,027.2,020.0,17.0,0000.0,0000.16,0000.44,0000.08
2023-12-04 12:37:00,SystemResetWarning,0825.9,5.00,000.00,018.9,018.2,000.0,027.2,020.0,16.9,0000.0,0000.16,0000.44,0000.08
2023-12-04 12:38:00,SystemResetWarning,0825.9,5.00,000.00,018.9,018.1,000.0,027.2,020.0,17.0,0000.0,0000.17,0000.47,0000.08
2023-12-04 12:39:00,SystemResetWarning,0825.9,5.00,000.00,018.9,018.0,000.0,027.2,020.0,17.1,0000.0,0000.19,0000.50,0000.08
2023-12-04 12:40:00,SystemResetWarning,0825.9,5.00,000.00,018.9,018.0,000.0,027.2,020.0,16.8,0000.0,0000.18,0000.37,0000.09
2023-12-04 12:41:00,SystemResetWarning,0825.9,5.00,000.00,018.9,018.0,000.0,027.2,020.0,16.6,0000.0,0000.18,0000.37,0000.09
2023-12-04 12:42:00,SystemResetWarning,0825.9,5.00,000.00,018.9,018.0,000.0,027.2,020.0,16.5,0000.0,0000.18,0000.36,0000.09
2023-12-04 12:43:00,SystemResetWarning,0825.9,4.99,000.00,018.9,018.0,000.0,027.2,020.0,16.6,0000.0,0000.19,0000.40,0000.09
2023-12-04 12:44:00,SystemResetWarning,0825.9,4.99,000.00,018.8,018.0,000.0,027.2,020.0,16.2,0000.0,0000.20,0000.39,0000.10
2023-12-04 12:45:00,SystemResetWarning,0825.9,4.99,000.00,018.8,018.0,000.0,027.2,020.0,15.9,0000.0,0000.21,0000.40,0000.09
2023-12-04 12:46:00,SystemResetWarning,0825.7,5.00,000.00,018.8,018.0,000.0,027.2,020.0,16.0,0000.0,0000.24,0000.43,0000.09
2023-12-04 12:47:00,SystemResetWarning,0825.6,5.01,000.00,018.8,017.9,000.0,027.2,020.0,16.1,0000.0,0000.23,0000.43,0000.08
2023-12-04 12:48:00,SystemResetWarning,0825.8,4.99,000.00,018.8,017.9,000.0,027.2,020.0,16.1,0000.0,0000.24,0000.44,0000.08
2023-12-04 12:49:00,SystemResetWarning,0825.8,5.00,000.00,018.8,017.9,000.0,027.2,020.0,15.9,0000.0,0000.23,0000.42,0000.08
2023-12-04 12:50:00,SystemResetWarning,0825.9,5.00,000.00,018.8,017.9,000.0,027.2,020.0,15.6,0000.0,0000.21,0000.49,0000.08
2023-12-04 12:51:00,SystemResetWarning,0825.7,5.00,000.00,018.8,017.9,000.0,027.2,020.0,15.6,0000.0,0000.21,0000.75,0000.07
2023-12-04 12:52:00,SystemResetWarning,0825.9,5.00,000.00,018.8,017.9,000.0,027.2,020.0,15.8,0000.0,0000.22,0000.77,0000.07
2023-12-04 12:53:00,SystemResetWarning,0825.7,5.00,000.00,018.8,017.9,000.0,027.2,020.0,16.2,0000.0,0000.20,0000.75,0000.06
2023-12-04 12:54:00,SystemResetWarning,0825.7,5.00,000.00,018.8,017.8,000.0,027.2,020.0,16.2,0000.0,0000.18,0000.71,0000.06
2023-12-04 12:55:00,SystemResetWarning,0826.0,5.00,000.00,018.8,017.8,000.0,027.2,020.0,16.1,0000.0,0000.18,0000.75,0000.06
2023-12-04 12:56:00,SystemResetWarning,0826.0,5.00,000.00,018.8,017.8,000.0,027.2,020.0,16.0,0000.0,0000.16,0000.76,0000.06
2023-12-04 12:57:00,SystemResetWarning,0826.0,5.00,000.00,018.8,017.9,000.0,027.2,020.0,16.2,0000.0,0000.12,0000.70,0000.06
2023-12-04 12:58:00,SystemResetWarning,0826.0,5.00,000.00,018.8,017.9,000.0,027.2,020.0,16.3,0000.0,0000.12,0000.71,0000.07
2023-12-04 12:59:00,SystemResetWarning,0826.2,5.00,000.00,018.8,017.9,000.0,027.2,020.0,16.0,0000.0,0000.12,0000.71,0000.06
